Location: Newark
(50.8311°N, 16.5142°E)
Time: 16:01:11
(UTC+00:00)

N. Korean satellite - Visible Passes

Search period start: 22 October 2019 00:00
Search period end: 01 November 2019 00:00
Orbit: 455 x 508 km, 97.2° (Epoch: 21 October)

Date Brightness Start Highest point End Pass type
(mag) Time Alt. Az. Time Alt. Az. Time Alt. Az.
22 Oct 9.9 03:57:22 10° NE 03:59:53 17° E 04:02:23 10° SE visible
24 Oct 7.7 04:39:20 10° NNE 04:42:54 49° E 04:46:28 10° S visible
24 Oct 9.8 16:54:05 10° SW 16:56:29 18° W 16:58:55 10° NW visible
25 Oct 9.1 04:14:19 10° NE 04:17:28 26° E 04:20:37 10° SSE visible
25 Oct 8.6 16:27:51 10° SSW 16:31:00 32° W 16:34:12 10° NNW visible
26 Oct 10.1 03:49:47 10° NE 03:51:57 15° E 03:54:08 10° SE visible
27 Oct 6.8 04:56:42 10° NNE 05:00:22 80° ESE 05:04:03 10° S visible
27 Oct 10.3 17:12:48 10° WSW 17:14:06 12° W 17:15:24 10° WNW visible
28 Oct 8.2 04:31:29 10° NNE 04:35:00 41° E 04:38:31 10° S visible
28 Oct 9.5 16:45:47 10° SW 16:48:31 21° W 16:51:18 10° NW visible
29 Oct 9.4 04:06:34 10° NE 04:09:32 22° E 04:12:30 10° SSE visible
29 Oct 8.1 16:19:44 10° S 16:23:02 40° W 16:26:24 10° NNW visible
30 Oct 10.3 03:42:18 10° ENE 03:43:59 13° E 03:45:40 10° ESE visible
31 Oct 7.1 04:48:46 10° NNE 04:52:27 65° E 04:56:09 10° S visible
31 Oct 10.0 17:04:06 10° WSW 17:06:04 14° W 17:08:03 10° NW visible
